Weather History for Renton, WA

Change the Weather History Date:

Friday, February 8, 2013

  Actual Average Record
Temperature  
Mean Temperature 38 °F -  
Max Temperature 44 °F 48 °F 55 °F (2007)
Min Temperature 33 °F 35 °F 28 °F (1997)
Degree Days  
Heating Degree Days 26    
Moisture  
Dew Point 35 °F    
Average Humidity 86    
Maximum Humidity 100    
Minimum Humidity 73    
Precipitation  
Precipitation 0.00 in - - ()
Sea Level Pressure  
Sea Level Pressure 30.28 in    
Wind  
Wind Speed 0 mph (NW)    
Max Wind Speed 6 mph    
Max Gust Speed -    
Visibility 10 miles    
Events      
Averages and records for this station are not official NWS values.
T = Trace of Precipitation, MM = Missing Value Source: NWS Daily Summary

Daily Weather History Graph

Daily Weather History Graph

Search for Another Location

Airport:

Trip Planner

Search our weather history database for the weather conditions in past years. The results will help you decide how hot, cold, wet, or windy it might be!

Date:

Astronomy

Feb. 08, 2013 Rise Set
Actual Time 7:24 AM PST 5:22 PM PST
Civil Twilight 6:52 AM PST 5:54 PM PST
Nautical Twilight 6:16 AM PST 6:30 PM PST
Astronomical Twilight 5:40 AM PST 7:06 PM PST
Moon 6:00 AM PST (2/8) 3:59 PM PST (2/8)
Length of Visible Light 11h 01m
Length of Day
9h 57m
Waning Crescent, 3% of the Moon is Illuminated
Feb 8
Waning Crescent
Feb 9
New
Feb 17
First Quarter
Feb 25
Full
Mar 4
Last Quarter

Hourly Weather History & Observations

Time (PST) Temp. Windchill Dew Point Humidity Pressure Visibility Wind Dir Wind Speed Gust Speed Precip Events Conditions
12:28 AM 33.8 °F - 32.0 °F 93% 30.21 in 10.0 mi Calm Calm - N/A   Mostly Cloudy
12:53 AM 34.0 °F - 32.0 °F 92% 30.23 in 10.0 mi Calm Calm - N/A   Overcast
1:19 AM 33.8 °F - 32.0 °F 93% 30.21 in 10.0 mi Calm Calm - N/A   Scattered Clouds
1:41 AM 33.8 °F - 32.0 °F 93% 30.21 in 10.0 mi Calm Calm - N/A   Mostly Cloudy
1:53 AM 34.0 °F - 32.0 °F 92% 30.23 in 10.0 mi Calm Calm - N/A   Overcast
2:53 AM 35.1 °F - 33.1 °F 92% 30.25 in 10.0 mi Calm Calm - N/A   Overcast
3:03 AM 35.6 °F - 33.8 °F 93% 30.23 in 10.0 mi Calm Calm - N/A   Overcast
3:53 AM 35.6 °F - 33.8 °F 93% 30.23 in 10.0 mi Calm Calm - N/A   Overcast
4:25 AM 33.8 °F - 33.8 °F 100% 30.24 in 10.0 mi Calm Calm - N/A   Overcast
4:53 AM 35.1 °F - 33.1 °F 92% 30.27 in 10.0 mi Calm Calm - N/A   Overcast
5:53 AM 36.0 °F - 33.1 °F 89% 30.28 in 10.0 mi Calm Calm - N/A   Overcast
6:06 AM 35.6 °F - 33.8 °F 93% 30.26 in 10.0 mi Calm Calm - N/A   Overcast
6:53 AM 35.1 °F - 33.1 °F 92% 30.28 in 10.0 mi Calm Calm - N/A   Overcast
7:53 AM 37.0 °F - 34.0 °F 89% 30.30 in 9.0 mi Calm Calm - N/A   Overcast
8:53 AM 35.6 °F 32.8 °F 33.8 °F 93% 30.29 in 10.0 mi SE 3.5 mph - N/A   Overcast
9:25 AM 37.4 °F - 33.8 °F 87% 30.30 in 10.0 mi Calm Calm - N/A   Overcast
9:53 AM 37.9 °F - 34.0 °F 86% 30.32 in 10.0 mi Calm Calm - N/A   Overcast
10:53 AM 41.0 °F 39.0 °F 37.0 °F 86% 30.33 in 10.0 mi NW 3.5 mph - N/A   Overcast
11:53 AM 42.1 °F 38.4 °F 37.0 °F 82% 30.32 in 10.0 mi NW 5.8 mph - N/A   Overcast
12:53 PM 43.0 °F 40.3 °F 36.0 °F 76% 30.31 in 10.0 mi NW 4.6 mph - N/A   Mostly Cloudy
1:53 PM 43.0 °F - 36.0 °F 76% 30.30 in 10.0 mi Calm Calm - N/A   Overcast
2:53 PM 44.1 °F - 36.0 °F 73% 30.30 in 10.0 mi Calm Calm - N/A   Overcast
3:53 PM 44.1 °F - 36.0 °F 73% 30.30 in 10.0 mi Calm Calm - N/A   Overcast
4:53 PM 44.1 °F - 36.0 °F 73% 30.30 in 10.0 mi Calm Calm - N/A   Overcast
5:53 PM 43.0 °F - 37.0 °F 80% 30.30 in 10.0 mi Calm Calm - N/A   Overcast
6:53 PM 43.0 °F - 35.1 °F 74% 30.30 in 10.0 mi Calm Calm - N/A   Overcast
7:53 PM 43.0 °F - 37.0 °F 80% 30.30 in 10.0 mi Calm Calm - N/A   Overcast
8:53 PM 42.1 °F - 36.0 °F 79% 30.30 in 10.0 mi Calm Calm - N/A   Overcast
9:53 PM 42.1 °F - 36.0 °F 79% 30.30 in 10.0 mi Calm Calm - N/A   Overcast
10:53 PM 41.0 °F - 36.0 °F 82% 30.30 in 10.0 mi Calm Calm - N/A   Overcast
11:53 PM 39.9 °F - 36.0 °F 86% 30.30 in 10.0 mi Calm Calm - N/A   Overcast